Date String (YYYY-MM-DD hh:mm:ss) UTC,Instrument flags,absolute air pressure of the measurement (hPa),sample flow rate (lpm),inlet stack bypass flow (lpm),air temperature of the measurement (°C),ambient temperature measured by the external sensor (°C),aerosol sample conditioner tube jacket temperature (°C),OPC LED temperature (°C),internal box temperature (°C),relative humidity of the measurement (%),span deviation,mass concentration of particles derived from Lorenz-Mie calculation of OPC scattering (μg/m³),mass concentration of particles derived from Lorenz-Mie calculation of OPC scattering (μg/m³),mass concentration of particles derived from Lorenz-Mie calculation of OPC scattering (μg/m³)
DateTimeUTC,F1_M11,P_M11,Q1_M11,Q2_M11,T1_M11,T2_M11,T3_M11,T4_M11,T5_M11,U1_M11,ZSPAN_M11,X2_M11,X0_M11,X1_M11
2024-05-23 17:00:00,SystemResetWarning,0818.6,5.01,000.00,029.9,029.2,000.0,038.0,031.5,009.0,0000.0,0004.62,0016.62,0003.19
2024-05-23 17:01:00,SystemResetWarning,0818.5,5.00,000.00,029.9,029.2,000.0,038.1,031.6,008.8,0000.0,0004.61,0016.27,0003.21
2024-05-23 17:02:00,SystemResetWarning,0818.5,4.99,000.00,029.9,029.2,000.0,038.1,031.5,008.6,0000.0,0004.59,0016.35,0003.21
2024-05-23 17:03:00,SystemResetWarning,0818.4,5.00,000.00,029.9,029.2,000.0,038.1,031.6,009.0,0000.0,0004.61,0016.55,0003.20
2024-05-23 17:04:00,SystemResetWarning,0818.5,4.99,000.00,029.9,029.2,000.0,038.1,031.6,010.2,0000.0,0004.63,0015.56,0003.20
2024-05-23 17:05:00,SystemResetWarning,0818.5,5.00,000.00,029.9,029.2,000.0,038.1,031.6,010.1,0000.0,0004.62,0015.26,0003.20
2024-05-23 17:06:00,SystemResetWarning,0818.4,5.00,000.00,029.9,029.2,000.0,038.1,031.6,011.7,0000.0,0004.59,0015.20,0003.21
2024-05-23 17:07:00,SystemResetWarning,0818.4,5.01,000.00,029.9,029.2,000.0,038.1,031.6,011.2,0000.0,0004.59,0015.42,0003.21
2024-05-23 17:08:00,SystemResetWarning,0818.5,4.99,000.00,030.0,029.3,000.0,038.2,031.6,013.3,0000.0,0004.70,0015.80,0003.22
2024-05-23 17:09:00,SystemResetWarning,0818.6,4.99,000.00,030.0,029.3,000.0,038.2,031.6,012.1,0000.0,0004.70,0015.73,0003.23
2024-05-23 17:10:00,SystemResetWarning,0818.6,5.00,000.00,030.0,029.3,000.0,038.2,031.7,012.2,0000.0,0004.70,0016.67,0003.23
2024-05-23 17:11:00,SystemResetWarning,0818.5,5.01,000.00,030.0,029.3,000.0,038.2,031.7,013.4,0000.0,0004.68,0017.62,0003.24
2024-05-23 17:12:00,SystemResetWarning,0818.5,5.00,000.00,030.0,029.3,000.0,038.2,031.7,013.3,0000.0,0004.73,0019.20,0003.25
2024-05-23 17:13:00,SystemResetWarning,0818.5,4.99,000.00,030.0,029.3,000.0,038.2,031.7,012.1,0000.0,0004.78,0021.38,0003.27
2024-05-23 17:14:00,SystemResetWarning,0818.5,5.00,000.00,030.0,029.3,000.0,038.2,031.7,011.7,0000.0,0004.82,0021.77,0003.33
2024-05-23 17:15:00,SystemResetWarning,0818.5,5.01,000.00,030.0,029.3,000.0,038.2,031.7,011.9,0000.0,0004.89,0021.93,0003.37
2024-05-23 17:16:00,SystemResetWarning,0818.5,5.02,000.00,030.0,029.3,000.0,038.2,031.7,011.7,0000.0,0004.97,0021.95,0003.42
2024-05-23 17:17:00,SystemResetWarning,0818.5,5.00,000.00,030.0,029.3,000.0,038.2,031.7,011.7,0000.0,0005.02,0022.36,0003.47
2024-05-23 17:18:00,SystemResetWarning,0818.5,4.99,000.00,030.1,029.3,000.0,038.3,031.7,011.2,0000.0,0005.05,0022.72,0003.51
2024-05-23 17:19:00,SystemResetWarning,0818.5,5.01,000.00,030.1,029.4,000.0,038.3,031.7,011.0,0000.0,0005.01,0021.93,0003.56
2024-05-23 17:20:00,SystemResetWarning,0818.4,5.00,000.00,030.1,029.4,000.0,038.3,031.7,011.5,0000.0,0005.02,0020.85,0003.61
2024-05-23 17:21:00,SystemResetWarning,0818.4,5.00,000.00,030.1,029.4,000.0,038.3,031.8,011.5,0000.0,0005.08,0019.49,0003.66
2024-05-23 17:22:00,SystemResetWarning,0818.5,5.02,000.00,030.1,029.4,000.0,038.3,031.8,011.5,0000.0,0005.20,0018.29,0003.71
2024-05-23 17:23:00,SystemResetWarning,0818.5,5.01,000.00,030.1,029.4,000.0,038.3,031.8,010.4,0000.0,0005.22,0016.17,0003.75
2024-05-23 17:24:00,SystemResetWarning,0818.4,5.00,000.00,030.1,029.4,000.0,038.3,031.8,010.7,0000.0,0005.26,0014.01,0003.78
2024-05-23 17:25:00,SystemResetWarning,0818.4,5.00,000.00,030.1,029.4,000.0,038.3,031.8,010.7,0000.0,0005.32,0013.02,0003.79
2024-05-23 17:26:00,SystemResetWarning,0818.4,5.00,000.00,030.1,029.4,000.0,038.3,031.8,010.8,0000.0,0005.37,0013.02,0003.79
2024-05-23 17:27:00,SystemResetWarning,0818.4,5.00,000.00,030.2,029.4,000.0,038.3,031.8,010.6,0000.0,0005.35,0013.34,0003.78
2024-05-23 17:28:00,SystemResetWarning,0818.4,4.99,000.00,030.2,029.4,000.0,038.4,031.8,010.5,0000.0,0005.35,0013.51,0003.76
2024-05-23 17:29:00,SystemResetWarning,0818.4,4.99,000.00,030.2,029.5,000.0,038.4,031.8,010.2,0000.0,0005.38,0013.19,0003.75
2024-05-23 17:30:00,SystemResetWarning,0818.3,5.01,000.00,030.2,029.5,000.0,038.4,031.9,009.8,0000.0,0005.37,0013.86,0003.72
2024-05-23 17:31:00,SystemResetWarning,0818.3,5.00,000.00,030.2,029.5,000.0,038.4,031.9,010.2,0000.0,0005.37,0014.70,0003.70
2024-05-23 17:32:00,SystemResetWarning,0818.3,5.00,000.00,030.2,029.5,000.0,038.4,031.9,010.5,0000.0,0005.39,0016.01,0003.68
2024-05-23 17:33:00,SystemResetWarning,0818.3,5.01,000.00,030.2,029.5,000.0,038.4,031.9,009.8,0000.0,0005.33,0016.58,0003.65
2024-05-23 17:34:00,SystemResetWarning,0818.3,5.00,000.00,030.2,029.5,000.0,038.4,031.9,009.8,0000.0,0005.34,0017.28,0003.62
2024-05-23 17:35:00,SystemResetWarning,0818.3,4.98,000.00,030.2,029.5,000.0,038.4,031.9,010.1,0000.0,0005.32,0017.33,0003.60
2024-05-23 17:36:00,SystemResetWarning,0818.2,5.01,000.00,030.2,029.5,000.0,038.4,031.9,010.4,0000.0,0005.30,0017.51,0003.60
2024-05-23 17:37:00,SystemResetWarning,0818.3,5.01,000.00,030.2,029.5,000.0,038.4,031.9,010.7,0000.0,0005.17,0017.54,0003.58
2024-05-23 17:38:00,SystemResetWarning,0818.2,4.98,000.00,030.3,029.5,000.0,038.5,031.9,010.6,0000.0,0005.15,0016.79,0003.57
2024-05-23 17:39:00,SystemResetWarning,0818.2,5.01,000.00,030.3,029.6,000.0,038.5,031.9,010.6,0000.0,0005.13,0016.44,0003.56
2024-05-23 17:40:00,SystemResetWarning,0818.2,5.01,000.00,030.3,029.6,000.0,038.5,032.0,010.0,0000.0,0005.06,0016.56,0003.56
2024-05-23 17:41:00,SystemResetWarning,0818.2,4.98,000.00,030.3,029.6,000.0,038.5,032.0,010.6,0000.0,0005.06,0017.37,0003.56
2024-05-23 17:42:00,SystemResetWarning,0818.2,5.00,000.00,030.3,029.6,000.0,038.5,032.0,009.6,0000.0,0005.10,0016.90,0003.56
2024-05-23 17:43:00,SystemResetWarning,0818.1,5.00,000.00,030.3,029.6,000.0,038.5,032.0,011.0,0000.0,0005.04,0015.67,0003.55
2024-05-23 17:44:00,SystemResetWarning,0818.1,5.00,000.00,030.3,029.6,000.0,038.5,032.0,010.0,0000.0,0005.00,0014.97,0003.56
2024-05-23 17:45:00,SystemResetWarning,0818.1,5.01,000.00,030.3,029.6,000.0,038.5,032.0,009.9,0000.0,0004.95,0014.62,0003.55
2024-05-23 17:46:00,SystemResetWarning,0818.1,5.00,000.00,030.4,029.6,000.0,038.6,032.0,010.2,0000.0,0004.90,0014.87,0003.53
2024-05-23 17:47:00,SystemResetWarning,0818.1,5.00,000.00,030.4,029.7,000.0,038.6,032.0,010.0,0000.0,0004.83,0014.77,0003.50
2024-05-23 17:48:00,SystemResetWarning,0818.1,4.99,000.00,030.4,029.7,000.0,038.6,032.0,009.7,0000.0,0004.82,0014.92,0003.49
2024-05-23 17:49:00,SystemResetWarning,0818.1,4.99,000.00,030.4,029.7,000.0,038.6,032.0,009.8,0000.0,0004.78,0015.20,0003.47
2024-05-23 17:50:00,SystemResetWarning,0818.1,5.01,000.00,030.4,029.7,000.0,038.6,032.0,009.7,0000.0,0004.74,0014.79,0003.47
2024-05-23 17:51:00,SystemResetWarning,0818.1,5.00,000.00,030.4,029.7,000.0,038.6,032.1,009.5,0000.0,0004.78,0014.45,0003.45
2024-05-23 17:52:00,SystemResetWarning,0818.1,4.99,000.00,030.4,029.7,000.0,038.6,032.1,009.4,0000.0,0004.79,0012.89,0003.45
2024-05-23 17:53:00,SystemResetWarning,0818.0,5.00,000.00,030.4,029.7,000.0,038.7,032.1,009.0,0000.0,0004.80,0012.78,0003.45
2024-05-23 17:54:00,SystemResetWarning,0818.0,5.01,000.00,030.5,029.8,000.0,038.7,032.1,009.4,0000.0,0004.84,0012.75,0003.45
2024-05-23 17:55:00,SystemResetWarning,0818.0,5.00,000.00,030.5,029.8,000.0,038.7,032.1,009.8,0000.0,0004.87,0012.79,0003.45
2024-05-23 17:56:00,SystemResetWarning,0818.0,5.00,000.00,030.5,029.8,000.0,038.7,032.1,009.2,0000.0,0004.86,0012.72,0003.44
2024-05-23 17:57:00,SystemResetWarning,0818.0,5.00,000.00,030.5,029.8,000.0,038.7,032.1,010.1,0000.0,0004.86,0012.28,0003.45
2024-05-23 17:58:00,SystemResetWarning,0818.0,5.00,000.00,030.5,029.8,000.0,038.7,032.1,010.3,0000.0,0004.84,0011.91,0003.46
2024-05-23 17:59:00,SystemResetWarning,0818.0,5.00,000.00,030.5,029.8,000.0,038.7,032.1,010.0,0000.0,0004.89,0011.94,0003.46
